Regional Weather Roundup
Issued by NWS

Home | Current Version | Previous Version | Text Only | Print | Product List | Glossary Off
Versions: 1 2 3 4 5 6 7 8 9 10 11 12 13 14 15 16 17 18 19 20 21 22 23 24 25 26 27

000
ASUS45 KSLC 171010
RWRUT

UTAH REGIONAL WEATHER ROUNDUP
NATIONAL WEATHER SERVICE SALT LAKE CITY UT
400 AM MDT THU AUG 17 2017

UTZ001>011-023>025-171100-

NORTHERN UTAH

CITY           SKY/WX    TMP DP  RH WIND       PRES   REMARKS
BRIGHAM CITY     N/A     61  48  62 N3        30.07F
HILL AFB         N/A     65  37  34 E15       30.10R
LOGAN            N/A     59  47  64 CALM      30.08S
OGDEN            N/A     65  38  36 S10       30.07R
SALT LAKE CITY   N/A     69  41  36 SE8       30.06S
TOOELE VALLEY    N/A     64  37  36 SW9       30.08R
WENDOVER         N/A     67  41  38 S9        30.06R
HEBER CITY       N/A     46  41  81 CALM      30.18S
WEST JORDAN      N/A     64  45  48 SW6       30.10S

$$

UTZ011>015-024>027-171100-

CENTRAL/NORTHEAST UTAH

CITY           SKY/WX    TMP DP  RH WIND       PRES   REMARKS
PROVO AIRPORT    N/A     61  44  53 S5        30.11S
MOAB/CANYONLAN   N/A     68  31  25 CALM      30.07S
DELTA            N/A     61  37  41 NE5       30.12R
PRICE          MOCLDY    60  42  51 N3        30.18R
ROOSEVELT      CLOUDY    55  45  67 W6        30.17S
VERNAL         CLEAR     57  45  64 W7        30.16R

$$

UTZ013>016-019>022-027-171100-

SOUTHERN UTAH

CITY           SKY/WX    TMP DP  RH WIND       PRES   REMARKS
BRYCE CANYON     N/A     44  37  76 W8        30.33S
CEDAR CITY       N/A     60  38  43 VRB3      30.17R
MILFORD          N/A     58  36  43 SW6       30.14R
ST GEORGE        N/A     71  41  33 SE7       30.00R
HANKSVILLE       N/A     61  32  33 CALM      30.11S
BLANDING         N/A     55  32  41 NE6       30.25S

$$

REGIONAL REPORTS     COLORADO/ARIZONA

CITY           SKY/WX    TMP DP  RH WIND       PRES   REMARKS
CRAIG, CO      PTCLDY    49  43  80 W6        30.23R
GRAND JUNCTION CLOUDY    64  38  38 SE13      30.12R
RIFLE, CO      CLEAR     54  42  64 E5        30.20R
MONTROSE, CO   CLEAR     57  37  47 SE9       30.22R
CORTEZ, CO     CLEAR     46  33  60 NE7       30.21R
COLORADO CITY    N/A     54  45  71 SE3       30.16S
PAGE, AZ         N/A     70  37  29 SW3       30.07R
GRAND CANYON     N/A     48  38  68 CALM      30.27S
KINGMAN, AZ      N/A     64  38  38 CALM      30.04S
FLAGSTAFF, AZ    N/A     46  39  76 CALM      30.30S

$$

REGIONAL REPORTS    NEVADA/IDAHO/WYOMING

CITY           SKY/WX    TMP DP  RH WIND       PRES   REMARKS
LAS VEGAS, NV    N/A     81  41  24 SW3       29.93R
ELY, NY          N/A     45  40  82 S10       30.23F
ELKO, NV         N/A     54  38  54 NW3       30.15R
POCATELLO, ID  CLEAR     57  38  48 VRB5      30.07R
BURLEY, ID       N/A     57  41  55 SW12      30.05R
FORT BRIDGER,    N/A     59  34  39 W9        30.27S
EVANSTON, WY   CLOUDY    55  36  48 S6        30.26S
ROCK SPRINGS,  CLEAR     58  36  43 W12       30.22S
KEMMERER, WY     N/A     48  37  66 N10       30.26S

$$




USA.gov is the U.S. government's official web portal to all federal, state and local government web resources and services.